EIN5YP LFRS-EIDW

Flight info

Callsign EIN5YP
Flight time 1h 26m
Altitude 36000
Route ERBIN DCT LUTAS DCT BAGAD DCT TERKU DCT DOLUR DCT UPCAB DCT IJALA DCT EVRIN DCT BUNED BUNED4L
Aircraft A320/M-SDE3FGHIRWY/LB1

Departure

Time 2026-05-01 12:23
Airport Nantes Atlantique Airport (LFRS)

Arrival

Time 2026-05-01 13:49
Airport Dublin Airport (EIDW)
Time Latitude Longitude Altitude Speed Heading
2026-05-01 11:58 47.15714 -1.60267 90 ft 0 kts 45°
2026-05-01 12:12 47.15703 -1.60283 92 ft 2 kts 40°
2026-05-01 12:12 47.15691 -1.60298 93 ft 2 kts 36°
2026-05-01 12:13 47.15677 -1.60312 90 ft 2 kts 26°
2026-05-01 12:13 47.15661 -1.60321 90 ft 2 kts
2026-05-01 12:13 47.15645 -1.60320 90 ft 2 kts 335°
2026-05-01 12:13 47.15633 -1.60309 93 ft 1 kts 318°
2026-05-01 12:14 47.15630 -1.60306 93 ft 0 kts 317°
2026-05-01 12:16 47.15645 -1.60326 90 ft 6 kts 318°
2026-05-01 12:16 47.15677 -1.60368 90 ft 6 kts 319°
2026-05-01 12:16 47.15705 -1.60403 90 ft 6 kts 322°
2026-05-01 12:16 47.15759 -1.60450 91 ft 9 kts 346°
2026-05-01 12:17 47.15815 -1.60425 90 ft 8 kts 27°
2026-05-01 12:17 47.15859 -1.60392 91 ft 6 kts 27°
2026-05-01 12:17 47.15908 -1.60354 91 ft 9 kts 27°
2026-05-01 12:17 47.15958 -1.60316 89 ft 7 kts 27°
2026-05-01 12:18 47.15999 -1.60285 90 ft 8 kts 26°
2026-05-01 12:18 47.16067 -1.60233 91 ft 11 kts 27°
2026-05-01 12:18 47.16134 -1.60182 91 ft 11 kts 28°
2026-05-01 12:18 47.16194 -1.60136 90 ft 9 kts 27°
2026-05-01 12:19 47.16244 -1.60098 90 ft 7 kts 27°
2026-05-01 12:19 47.16258 -1.60088 91 ft 1 kts 27°
2026-05-01 12:19 47.16259 -1.60087 90 ft 0 kts 26°
2026-05-01 12:20 47.16278 -1.60073 93 ft 4 kts 26°
2026-05-01 12:20 47.16309 -1.60054 90 ft 8 kts 13°
2026-05-01 12:21 47.16391 -1.60076 85 ft 11 kts 345°
2026-05-01 12:21 47.16449 -1.60145 86 ft 11 kts 291°
2026-05-01 12:21 47.16435 -1.60220 87 ft 9 kts 213°
2026-05-01 12:21 47.16392 -1.60254 87 ft 5 kts 207°
2026-05-01 12:22 47.16366 -1.60274 90 ft 7 kts 208°
2026-05-01 12:22 47.16152 -1.60438 86 ft 72 kts 207°
2026-05-01 12:22 47.15505 -1.60930 89 ft 134 kts 207°
2026-05-01 12:22 47.14551 -1.61658 304 ft 161 kts 207°
2026-05-01 12:23 47.13548 -1.62392 1009 ft 160 kts 207°
2026-05-01 12:23 47.12544 -1.63153 1575 ft 169 kts 206°
2026-05-01 12:23 47.11577 -1.64255 1887 ft 192 kts 239°
2026-05-01 12:23 47.11289 -1.66276 2191 ft 214 kts 279°
2026-05-01 12:24 47.11969 -1.68296 2534 ft 236 kts 310°
2026-05-01 12:24 47.13086 -1.70184 3048 ft 256 kts 311°
2026-05-01 12:24 47.14296 -1.72184 3956 ft 260 kts 312°
2026-05-01 12:24 47.15509 -1.74185 4935 ft 264 kts 311°
2026-05-01 12:25 47.16734 -1.76224 5820 ft 268 kts 310°
2026-05-01 12:25 47.19216 -1.80392 7533 ft 277 kts 310°
2026-05-01 12:25 47.20492 -1.82548 8378 ft 282 kts 310°
2026-05-01 12:26 47.21781 -1.84731 9198 ft 286 kts 310°
2026-05-01 12:26 47.24447 -1.89246 10556 ft 305 kts 310°
2026-05-01 12:26 47.25890 -1.91696 10818 ft 328 kts 310°
2026-05-01 12:27 47.27411 -1.94283 11357 ft 338 kts 310°
2026-05-01 12:27 47.30543 -1.99610 12770 ft 348 kts 310°
2026-05-01 12:28 47.33487 -2.05376 14145 ft 356 kts 295°
2026-05-01 12:28 47.34423 -2.08765 14771 ft 359 kts 287°
2026-05-01 12:28 47.36083 -2.15777 16077 ft 365 kts 288°
2026-05-01 12:29 47.36929 -2.19322 16723 ft 369 kts 288°
2026-05-01 12:29 47.37782 -2.22905 17388 ft 372 kts 288°
2026-05-01 12:29 47.39506 -2.30169 18624 ft 378 kts 288°
2026-05-01 12:30 47.41652 -2.37334 19736 ft 385 kts 295°
2026-05-01 12:30 47.42845 -2.40908 20296 ft 388 kts 295°
2026-05-01 12:30 47.44039 -2.44493 20853 ft 391 kts 294°
2026-05-01 12:31 47.45242 -2.48127 21412 ft 394 kts 294°
2026-05-01 12:31 47.46433 -2.51739 21926 ft 398 kts 294°
2026-05-01 12:31 47.47648 -2.55431 22468 ft 401 kts 294°
2026-05-01 12:31 47.48871 -2.59154 22996 ft 404 kts 294°
2026-05-01 12:32 47.50101 -2.62907 23504 ft 407 kts 294°
2026-05-01 12:32 47.52592 -2.70502 24392 ft 413 kts 294°
2026-05-01 12:32 47.53848 -2.74334 24813 ft 415 kts 294°
2026-05-01 12:33 47.55109 -2.78192 25221 ft 417 kts 294°
2026-05-01 12:33 47.56373 -2.82072 25622 ft 419 kts 293°
2026-05-01 12:33 47.57669 -2.85954 26009 ft 423 kts 297°
2026-05-01 12:33 47.59306 -2.89608 26381 ft 427 kts 307°
2026-05-01 12:34 47.61287 -2.92916 26758 ft 431 kts 310°
2026-05-01 12:34 47.63320 -2.96203 27138 ft 433 kts 310°
2026-05-01 12:34 47.65357 -2.99511 27504 ft 435 kts 310°
2026-05-01 12:34 47.67403 -3.02849 27873 ft 438 kts 310°
2026-05-01 12:35 47.69452 -3.06201 28226 ft 440 kts 310°
2026-05-01 12:35 47.71515 -3.09581 28567 ft 442 kts 310°
2026-05-01 12:35 47.73589 -3.12984 28907 ft 445 kts 310°
2026-05-01 12:35 47.75668 -3.16396 29225 ft 447 kts 310°
2026-05-01 12:36 47.77761 -3.19833 29543 ft 449 kts 310°
2026-05-01 12:36 47.79153 -3.22120 29751 ft 451 kts 310°
2026-05-01 12:36 47.81262 -3.25594 30054 ft 453 kts 309°
2026-05-01 12:36 47.84069 -3.30224 30415 ft 456 kts 309°
2026-05-01 12:37 47.86196 -3.33739 30664 ft 458 kts 309°
2026-05-01 12:37 47.88328 -3.37268 30911 ft 459 kts 309°
2026-05-01 12:37 47.90467 -3.40811 31162 ft 461 kts 309°
2026-05-01 12:37 47.91919 -3.43215 31325 ft 462 kts 309°
2026-05-01 12:38 47.94071 -3.46784 31569 ft 463 kts 309°
2026-05-01 12:38 47.96219 -3.50353 31892 ft 462 kts 309°
2026-05-01 12:38 47.98357 -3.53911 32225 ft 460 kts 309°
2026-05-01 12:38 48.00492 -3.57470 32567 ft 459 kts 308°
2026-05-01 12:39 48.02708 -3.60900 32899 ft 460 kts 315°
2026-05-01 12:39 48.05246 -3.63836 33228 ft 463 kts 324°
2026-05-01 12:39 48.07963 -3.66432 33541 ft 463 kts 324°
2026-05-01 12:39 48.10677 -3.69024 33865 ft 462 kts 324°
2026-05-01 12:40 48.13351 -3.71584 34176 ft 461 kts 324°
2026-05-01 12:40 48.16055 -3.74173 34461 ft 461 kts 324°
2026-05-01 12:40 48.18749 -3.76759 34724 ft 460 kts 324°
2026-05-01 12:40 48.21444 -3.79354 34990 ft 459 kts 324°
2026-05-01 12:41 48.24132 -3.81954 35241 ft 459 kts 324°
2026-05-01 12:41 48.26813 -3.84556 35488 ft 459 kts 323°
2026-05-01 12:41 48.29494 -3.87159 35727 ft 458 kts 324°
2026-05-01 12:41 48.32173 -3.89757 35952 ft 458 kts 324°
2026-05-01 12:42 48.34847 -3.92352 36149 ft 458 kts 324°
2026-05-01 12:42 48.37522 -3.94949 36208 ft 456 kts 323°
2026-05-01 12:42 48.42836 -4.00122 36217 ft 454 kts 323°
2026-05-01 12:43 48.48149 -4.05304 36219 ft 455 kts 323°
2026-05-01 12:43 48.53461 -4.10500 36222 ft 456 kts 323°
2026-05-01 12:44 48.58780 -4.15723 36219 ft 456 kts 323°
2026-05-01 12:45 48.69443 -4.26204 36219 ft 457 kts 323°
2026-05-01 12:45 48.74771 -4.31488 36220 ft 458 kts 323°
2026-05-01 12:46 48.80116 -4.36782 36219 ft 459 kts 323°
2026-05-01 12:46 48.85421 -4.42059 36222 ft 459 kts 323°
2026-05-01 12:47 48.90775 -4.47387 36229 ft 460 kts 323°
2026-05-01 12:47 48.96129 -4.52730 36226 ft 461 kts 323°
2026-05-01 12:48 49.01492 -4.58094 36227 ft 461 kts 323°
2026-05-01 12:48 49.06861 -4.63481 36223 ft 462 kts 323°
2026-05-01 12:49 49.12233 -4.68893 36222 ft 463 kts 323°
2026-05-01 12:49 49.17606 -4.74316 36226 ft 463 kts 323°
2026-05-01 12:50 49.22984 -4.79755 36224 ft 464 kts 323°
2026-05-01 12:50 49.28335 -4.85186 36225 ft 465 kts 323°
2026-05-01 12:51 49.33725 -4.90672 36225 ft 465 kts 323°
2026-05-01 12:52 49.41822 -4.98936 36222 ft 466 kts 323°
2026-05-01 12:52 49.49945 -5.07191 36215 ft 468 kts 325°
2026-05-01 12:53 49.58481 -5.14585 36213 ft 470 kts 329°
2026-05-01 12:54 49.64245 -5.19367 36205 ft 471 kts 328°
2026-05-01 12:54 49.72814 -5.26792 36198 ft 471 kts 327°
2026-05-01 12:55 49.81330 -5.34295 36193 ft 472 kts 327°
2026-05-01 12:56 49.87052 -5.39307 36192 ft 472 kts 327°
2026-05-01 12:56 49.92779 -5.44331 36194 ft 473 kts 327°
2026-05-01 12:57 49.98497 -5.49379 36195 ft 473 kts 327°
2026-05-01 12:57 50.07089 -5.56983 36204 ft 474 kts 327°
2026-05-01 12:58 50.12783 -5.62039 36197 ft 474 kts 327°
2026-05-01 12:59 50.21387 -5.69701 36195 ft 475 kts 327°
2026-05-01 12:59 50.29994 -5.77405 36199 ft 475 kts 327°
2026-05-01 13:00 50.38602 -5.85138 36198 ft 476 kts 327°
2026-05-01 13:01 50.47223 -5.92910 36203 ft 476 kts 327°
2026-05-01 13:02 50.55840 -6.00717 36210 ft 477 kts 327°
2026-05-01 13:07 51.20320 -6.40766 36190 ft 485 kts 348°
2026-05-01 13:07 51.23634 -6.41755 36188 ft 485 kts 348°
2026-05-01 13:08 51.30283 -6.43730 36187 ft 486 kts 349°
2026-05-01 13:08 51.36953 -6.45509 36189 ft 486 kts 350°
2026-05-01 13:09 51.43636 -6.47180 36192 ft 486 kts 350°
2026-05-01 13:09 51.50321 -6.48895 36184 ft 487 kts 350°
2026-05-01 13:10 51.57020 -6.50671 35379 ft 494 kts 350°
2026-05-01 13:10 51.60438 -6.51585 34636 ft 496 kts 350°
2026-05-01 13:10 51.63824 -6.52490 34061 ft 493 kts 350°
2026-05-01 13:10 51.67156 -6.53375 33416 ft 491 kts 350°
2026-05-01 13:11 51.70524 -6.54269 32805 ft 488 kts 350°
2026-05-01 13:11 51.73864 -6.55159 32195 ft 485 kts 350°
2026-05-01 13:11 51.77181 -6.56039 31673 ft 481 kts 351°
2026-05-01 13:11 51.80510 -6.56513 31134 ft 478 kts 358°
2026-05-01 13:12 51.83826 -6.56768 30596 ft 475 kts 358°
2026-05-01 13:12 51.87126 -6.57021 30037 ft 473 kts 358°
2026-05-01 13:12 51.90400 -6.57271 29497 ft 468 kts 358°
2026-05-01 13:12 51.93645 -6.57520 28993 ft 464 kts 357°
2026-05-01 13:13 51.96849 -6.57769 28496 ft 459 kts 357°
2026-05-01 13:13 52.00025 -6.58021 28008 ft 455 kts 357°
2026-05-01 13:13 52.03125 -6.58267 27544 ft 450 kts 357°
2026-05-01 13:13 52.06246 -6.58517 27075 ft 446 kts 357°
2026-05-01 13:14 52.09323 -6.58764 26627 ft 442 kts 357°
2026-05-01 13:14 52.12397 -6.59009 26170 ft 439 kts 357°
2026-05-01 13:14 52.15436 -6.59249 25710 ft 436 kts 357°
2026-05-01 13:14 52.18450 -6.59486 25259 ft 433 kts 357°
2026-05-01 13:15 52.21456 -6.59722 24782 ft 431 kts 357°
2026-05-01 13:15 52.24442 -6.59960 24318 ft 428 kts 357°
2026-05-01 13:15 52.27417 -6.60198 23835 ft 427 kts 357°
2026-05-01 13:15 52.30384 -6.60434 23302 ft 425 kts 357°
2026-05-01 13:16 52.33328 -6.60671 22816 ft 422 kts 356°
2026-05-01 13:16 52.36248 -6.60905 22337 ft 419 kts 356°
2026-05-01 13:16 52.39152 -6.61135 21860 ft 416 kts 356°
2026-05-01 13:17 52.47742 -6.61829 20482 ft 408 kts 356°
2026-05-01 13:17 52.50572 -6.62061 20077 ft 404 kts 356°
2026-05-01 13:18 52.56090 -6.62503 19584 ft 391 kts 356°
2026-05-01 13:18 52.58784 -6.62330 19337 ft 387 kts 12°
2026-05-01 13:18 52.61309 -6.60921 19095 ft 382 kts 31°
2026-05-01 13:18 52.63429 -6.58389 18852 ft 373 kts 48°
2026-05-01 13:19 52.65303 -6.55440 18622 ft 372 kts 48°
2026-05-01 13:19 52.67169 -6.52488 18384 ft 371 kts 48°
2026-05-01 13:19 52.70874 -6.46619 17841 ft 368 kts 48°
2026-05-01 13:20 52.72712 -6.43703 17571 ft 366 kts 48°
2026-05-01 13:20 52.74543 -6.40798 17303 ft 364 kts 48°
2026-05-01 13:20 52.76337 -6.37953 17040 ft 363 kts 48°
2026-05-01 13:21 52.79961 -6.32191 16524 ft 359 kts 48°
2026-05-01 13:21 52.81751 -6.29332 16263 ft 357 kts 48°
2026-05-01 13:21 52.83531 -6.26483 16009 ft 356 kts 48°
2026-05-01 13:21 52.85309 -6.23638 15755 ft 354 kts 48°
2026-05-01 13:22 52.87081 -6.20807 15506 ft 353 kts 48°
2026-05-01 13:22 52.88843 -6.17989 15257 ft 352 kts 48°
2026-05-01 13:22 52.90598 -6.15175 15006 ft 350 kts 48°
2026-05-01 13:22 52.92346 -6.12366 14762 ft 349 kts 48°
2026-05-01 13:23 52.93496 -6.10515 14601 ft 348 kts 48°
2026-05-01 13:23 52.95811 -6.06779 14285 ft 346 kts 48°
2026-05-01 13:23 52.97533 -6.03993 14043 ft 345 kts 48°
2026-05-01 13:23 52.99244 -6.01224 13797 ft 343 kts 48°
2026-05-01 13:24 53.00378 -5.99392 13613 ft 343 kts 47°
2026-05-01 13:24 53.02635 -5.95752 13267 ft 341 kts 47°
2026-05-01 13:24 53.04331 -5.93014 13003 ft 339 kts 47°
2026-05-01 13:25 53.07139 -5.88472 12415 ft 334 kts 47°
2026-05-01 13:25 53.09341 -5.84905 11843 ft 333 kts 48°
2026-05-01 13:25 53.10461 -5.83088 11572 ft 333 kts 48°
2026-05-01 13:25 53.12112 -5.80391 11148 ft 332 kts 48°
2026-05-01 13:26 53.13755 -5.77709 10824 ft 328 kts 48°
2026-05-01 13:26 53.15354 -5.75100 10523 ft 324 kts 48°
2026-05-01 13:26 53.16960 -5.72485 10353 ft 314 kts 48°
2026-05-01 13:26 53.18496 -5.69989 10049 ft 311 kts 48°
2026-05-01 13:27 53.20037 -5.67482 9695 ft 309 kts 48°
2026-05-01 13:27 53.21567 -5.64983 9316 ft 307 kts 47°
2026-05-01 13:27 53.25392 -5.61974 8431 ft 312 kts
2026-05-01 13:28 53.29328 -5.64210 7638 ft 298 kts 314°
2026-05-01 13:28 53.30601 -5.66857 7237 ft 290 kts 296°
2026-05-01 13:29 53.32667 -5.72732 6310 ft 291 kts 296°
2026-05-01 13:29 53.34675 -5.78445 5649 ft 279 kts 296°
2026-05-01 13:30 53.38382 -5.89007 4335 ft 235 kts 296°
2026-05-01 13:31 53.39948 -5.93501 3843 ft 211 kts 293°
2026-05-01 13:31 53.40626 -6.00195 3093 ft 188 kts 271°
2026-05-01 13:32 53.40869 -6.04419 2609 ft 176 kts 271°
2026-05-01 13:33 53.41195 -6.10078 1957 ft 147 kts 271°
2026-05-01 13:33 53.41378 -6.13410 1577 ft 142 kts 271°
2026-05-01 13:34 53.41557 -6.16723 1190 ft 140 kts 270°
2026-05-01 13:34 53.41739 -6.20048 830 ft 147 kts 272°
2026-05-01 13:35 53.41929 -6.23518 416 ft 151 kts 272°
2026-05-01 13:35 53.42034 -6.25242 246 ft 149 kts 273°
2026-05-01 13:35 53.42249 -6.28887 1017 ft 177 kts 272°
2026-05-01 13:36 53.42370 -6.30999 1696 ft 187 kts 270°
2026-05-01 13:36 53.42495 -6.33300 2030 ft 204 kts 272°
2026-05-01 13:36 53.42733 -6.38167 2859 ft 213 kts 271°
2026-05-01 13:37 53.42849 -6.40645 3792 ft 215 kts 270°
2026-05-01 13:37 53.42676 -6.43154 4019 ft 216 kts 243°
2026-05-01 13:37 53.41771 -6.45058 4014 ft 209 kts 217°
2026-05-01 13:37 53.40518 -6.46268 4050 ft 207 kts 202°
2026-05-01 13:38 53.37700 -6.47453 4569 ft 219 kts 189°
2026-05-01 13:38 53.36176 -6.47372 4827 ft 224 kts 162°
2026-05-01 13:38 53.34880 -6.45918 4967 ft 231 kts 131°
2026-05-01 13:39 53.34204 -6.43480 5012 ft 236 kts 107°
2026-05-01 13:39 53.33734 -6.40844 5011 ft 235 kts 112°
2026-05-01 13:39 53.33193 -6.38264 5011 ft 235 kts 113°
2026-05-01 13:39 53.32726 -6.35645 5009 ft 237 kts 103°
2026-05-01 13:40 53.32500 -6.32904 5013 ft 238 kts 99°
2026-05-01 13:40 53.32327 -6.30155 5008 ft 238 kts 99°
2026-05-01 13:40 53.32159 -6.27396 5009 ft 238 kts 99°
2026-05-01 13:40 53.31995 -6.24636 5010 ft 239 kts 99°
2026-05-01 13:41 53.31834 -6.21875 5006 ft 238 kts 99°
2026-05-01 13:41 53.31680 -6.19113 5009 ft 239 kts 99°
2026-05-01 13:41 53.31526 -6.16334 5006 ft 239 kts 99°
2026-05-01 13:41 53.31369 -6.13569 5006 ft 239 kts 99°
2026-05-01 13:42 53.31200 -6.10803 5009 ft 239 kts 100°
2026-05-01 13:42 53.31022 -6.08033 5008 ft 239 kts 100°
2026-05-01 13:42 53.30846 -6.05266 5011 ft 239 kts 100°
2026-05-01 13:42 53.30670 -6.02505 5009 ft 239 kts 100°
2026-05-01 13:43 53.30545 -5.99733 5010 ft 241 kts 89°
2026-05-01 13:43 53.31032 -5.97050 4974 ft 242 kts 60°
2026-05-01 13:43 53.32190 -5.95073 4762 ft 239 kts 31°
2026-05-01 13:43 53.33746 -5.94230 4446 ft 236 kts
2026-05-01 13:44 53.35386 -5.94287 4142 ft 235 kts 356°
2026-05-01 13:44 53.37011 -5.94447 3833 ft 233 kts 347°
2026-05-01 13:44 53.38506 -5.95350 3559 ft 226 kts 324°
2026-05-01 13:44 53.39647 -5.97031 3427 ft 213 kts 304°
2026-05-01 13:45 53.40373 -5.99104 3285 ft 201 kts 286°
2026-05-01 13:45 53.40700 -6.01312 3094 ft 194 kts 271°
2026-05-01 13:45 53.40822 -6.03566 2754 ft 192 kts 272°
2026-05-01 13:45 53.40947 -6.05773 2462 ft 188 kts 272°
2026-05-01 13:46 53.41068 -6.07872 2251 ft 172 kts 272°
2026-05-01 13:46 53.41179 -6.09805 1994 ft 161 kts 271°
2026-05-01 13:46 53.41282 -6.11596 1782 ft 148 kts 271°
2026-05-01 13:46 53.41376 -6.13289 1583 ft 143 kts 270°
2026-05-01 13:47 53.41467 -6.14952 1416 ft 144 kts 271°
2026-05-01 13:47 53.41557 -6.16600 1210 ft 140 kts 271°
2026-05-01 13:47 53.41646 -6.18227 1034 ft 142 kts 271°
2026-05-01 13:47 53.41737 -6.19874 842 ft 143 kts 272°
2026-05-01 13:48 53.41830 -6.21532 660 ft 143 kts 272°
2026-05-01 13:48 53.41913 -6.23191 455 ft 142 kts 272°
2026-05-01 13:48 53.42010 -6.24818 277 ft 139 kts 274°
2026-05-01 13:48 53.42097 -6.26373 213 ft 121 kts 274°
2026-05-01 13:49 53.42149 -6.27341 214 ft 40 kts 275°
2026-05-01 13:49 53.42174 -6.27686 210 ft 23 kts 281°
2026-05-01 13:49 53.42224 -6.27917 217 ft 17 kts 298°
2026-05-01 13:49 53.42271 -6.28056 212 ft 9 kts 300°
2026-05-01 13:50 53.42317 -6.28130 211 ft 9 kts 340°
2026-05-01 13:50 53.42360 -6.28083 211 ft 8 kts 70°
2026-05-01 13:50 53.42360 -6.27998 211 ft 7 kts 94°
2026-05-01 13:50 53.42356 -6.27919 211 ft 8 kts 95°
2026-05-01 13:51 53.42349 -6.27792 214 ft 11 kts 96°
2026-05-01 13:51 53.42342 -6.27669 211 ft 10 kts 96°
2026-05-01 13:51 53.42335 -6.27556 215 ft 9 kts 95°
2026-05-01 13:51 53.42329 -6.27430 211 ft 11 kts 95°
2026-05-01 13:52 53.42322 -6.27301 219 ft 11 kts 95°
2026-05-01 13:52 53.42316 -6.27181 211 ft 10 kts 95°
2026-05-01 13:52 53.42308 -6.27049 219 ft 12 kts 95°
2026-05-01 13:52 53.42301 -6.26911 212 ft 11 kts 95°
2026-05-01 13:53 53.42294 -6.26786 211 ft 10 kts 95°
2026-05-01 13:53 53.42282 -6.26571 211 ft 9 kts 95°
2026-05-01 13:53 53.42276 -6.26469 216 ft 9 kts 96°
2026-05-01 13:54 53.42268 -6.26334 211 ft 16 kts 95°
2026-05-01 13:54 53.42259 -6.26158 211 ft 14 kts 95°
2026-05-01 13:54 53.42250 -6.25997 211 ft 13 kts 95°
2026-05-01 13:54 53.42241 -6.25838 211 ft 17 kts 95°
2026-05-01 13:55 53.42230 -6.25638 215 ft 17 kts 95°
2026-05-01 13:55 53.42220 -6.25453 213 ft 15 kts 95°
2026-05-01 13:55 53.42211 -6.25283 213 ft 14 kts 95°
2026-05-01 13:55 53.42202 -6.25128 211 ft 13 kts 94°
2026-05-01 13:56 53.42231 -6.25001 213 ft 11 kts 56°
2026-05-01 13:56 53.42280 -6.24910 216 ft 10 kts 46°
2026-05-01 13:56 53.42322 -6.24838 213 ft 8 kts 46°
2026-05-01 13:56 53.42359 -6.24774 211 ft 9 kts 45°
2026-05-01 13:57 53.42408 -6.24678 211 ft 11 kts 59°
2026-05-01 13:57 53.42428 -6.24614 216 ft 8 kts 62°
2026-05-01 13:57 53.42443 -6.24558 217 ft 2 kts 84°
2026-05-01 13:57 53.42429 -6.24526 213 ft 6 kts 136°
2026-05-01 13:58 53.42403 -6.24484 211 ft 4 kts 135°
2026-05-01 13:58 53.42388 -6.24459 211 ft 2 kts 135°
2026-05-01 13:58 53.42382 -6.24449 211 ft 0 kts 135°